COSMOS 1275 DEB

Satellite information

Favourite Embed

Satellite Type and Status

DEBRISIN ORBIT

Key statistics

Satellite COSMOS 1275 DEB at a glance.

Uptime

16042

Days in orbit

Revolutions

≈ 14.1

Per day

Orbit

LEO

Low Earth Orbit

Inclination

82.8

Latest

Satellite identification and parameters

Extended collection of information and parameters for COSMOS 1275 DEB.

Object identification

Identified? True

Debris? True

Object name: COSMOS 1275 DEB

International designator: 1981-053TF

Object number (NORAD): 42191

Object ID (CCSDS): 42191

Country: COMMONWEALTH OF INDEPENDENT STATES (CIS)

Current information (Y/N): Y

RCS size: SMALL

Orbital parameters

Period: 102.231 minutes

Inclination: 82.8185 deg

SMA: 7242.413 km

Apoapsis: 891.832 km

Periapsis: 836.723 km

RAAN: 91.9494 deg

Eccentricy: 0.0038046

Argument of periapsis: 82.1097 deg

Mean anomaly: 278.4393 deg

Mean motion: 14.08568056 rev/day

Mean motion (dot): 0.00003455 rev/day2

B* drag term: 0.0019894 1/REarth

Two-line elements (TLE)

Creation date: May 6, 2025, 3:54 a.m.

Reference frame: TEME

Reference center: EARTH

Epoch: May 5, 2025, 4:06 a.m. UTC

TLE line 0: 0 COSMOS 1275 DEB

TLE line 1: 1 42191U 81053TF 25125.17128549 .00003455 00000-0 19894-2 0 9996

TLE line 2: 2 42191 82.8185 91.9494 0038046 82.1097 278.4393 14.08568056585697

Live tracking on map

Real-time ground track for satellite COSMOS 1275 DEB.

In-orbit conjunctions

A list of the most updated potential collisions computed for object COSMOS 1275 DEB.

Target Orbit TCA Probability of collision Miss distance Type
METEOR 1-20 LEO 2025-01-30 16:24:44 0.0001488198 609.0 (m) PAYLOAD
METEOR 2-12 DEB LEO 2024-11-11 05:05:23 0.0001642464 903.0 (m) DEBRIS

Associated space launch

Navigation satellite providing location information for the Tsiklon-B navigation system

COSMOS 1275 DEB was lifted into orbit during the mission ‘Kosmos-3M | Parus 27’, on board a Kosmos-3M space rocket.

The launch took place on June 4, 1981, 3:41 p.m. from 132/2.

For more information about the launch, click the button.

Launch to space Kosmos-3M | Parus 27
Kosmos-3M | Parus 27

Agency: N/A

Status: Launch Successful

Launch date: June 4, 1981, 3:41 p.m. UTC

Rocket: Kosmos-3M

Launch pad: 132/2

Location: Plesetsk Cosmodrome, Russian Federation

...

Latest news about this satellite

There are no fresh news available about this satellite. Check back as we update our databases every day.


Newsletter sign-up

Weekly statistics, charts and insights to help you stay on top of the space industry.